Regional Weather Roundup
Issued by NWS Charleston, SC

Current Version | Previous Version | Graphics & Text | Print | Product List | Glossary On
Versions: 1 2 3 4 5 6 7 8 9 10 11 12 13 14 15 16 17 18 19 20 21 22 23 24 25 26 27 28 29 30 31 32 33 34 35 36 37 38 39 40 41 42 43 44 45 46 47 48 49 50
000 ASUS42 KCHS 051012 RWRCHS REGIONAL WEATHER ROUNDUP NATIONAL WEATHER SERVICE CHARLESTON SC 500 AM EST MON DEC 05 2016 NOTE: "FAIR" INDICATES FEW OR NO CLOUDS BELOW 12,000 FEET WITH NO SIGNIFICANT WEATHER AND/OR OBSTRUCTIONS TO VISIBILITY. NOT ALL STATIONS ARE QUALITY CONTROLLED. USE DATA WITH CAUTION... ESPECIALLY DEWPOINT OBSERVATIONS. SCZ027-030-031-034>040-042>050-051100- ...SOUTHEAST SOUTH CAROLINA... CITY SKY/WX TMP DP RH WIND PRES REMARKS N CHARLESTON LGT RAIN 59 56 89 NW8 29.97R WATERFRONT PRK N/A 68 66 93 SW10G21 29.94S MOUNT PLEASANT NOT AVBL JOHNS ISLAND LGT RAIN 68 66 94 SW13G20 29.96S PINOPOLIS N/A 52 52 100 NW7 29.90S MONCKS CORNER LGT RAIN 50 48 93 CALM 29.98S SUMMERVILLE HVY RAIN 50 50 100 CALM 29.99S BEAUFORT MCAS LGT RAIN 59 58 96 NW5 29.97S BEAUFORT ARPT DRIZZLE 66 64 94 SW3 29.96S HILTON HEAD IS LGT RAIN 68 66 94 S12 29.97S WALTERBORO DRIZZLE 52 N/A N/A CALM 29.98F ALLENDALE CLOUDY 48 48 100 CALM 29.96F ...SOUTHERN MIDLANDS AND PEE DEE... CITY SKY/WX TMP DP RH WIND PRES REMARKS GEORGETOWN NOT AVBL KINGSTREE RAIN 46 45 93 CALM 29.98S ORANGEBURG CLOUDY 47 45 93 CALM 29.96F BARNWELL NOT AVBL AIKEN DRIZZLE 43 43 100 NW12G17 30.05R MANNING NOT AVBL COLUMBIA LGT RAIN 46 43 89 N9 30.01R SUMTER LGT RAIN 45 44 94 N6 29.96S FLORENCE RAIN 45 45 100 N8 29.99R FOG MYRTLE BEACH CLOUDY 55 50 82 NW10 29.98R N MYRTLE BEACH LGT RAIN 56 56 100 NW10 29.95R $$ GAZ063-065-086>088-099>101-113>116-118-119-134>141-150-051100- ...SOUTHEAST GEORGIA... CITY SKY/WX TMP DP RH WIND PRES REMARKS SAVANNAH ARPT CLOUDY 63 60 90 NW5 29.98R HUNTER AAF CLOUDY 66 66 100 W3 29.95R FORT STEWART LGT RAIN 64 63 94 CALM 29.96R STATESBORO RAIN 52 52 100 CALM 29.96F SYLVANIA LGT RAIN N/A N/A N/A CALM 29.97F CLAXTON HVY RAIN N/A N/A N/A CALM 29.98F ...CSRA...CENTRAL AND FAR SOUTHEAST GEORGIA... CITY SKY/WX TMP DP RH WIND PRES REMARKS THOMSON CLOUDY 46 46 100 CALM 30.05F AUGUSTA-BUSH LGT RAIN 48 45 89 NW18G24 30.03R AUGUSTA-DANIEL LGT RAIN 46 42 86 N10G23 30.00R SWAINSBORO CLOUDY 48 46 93 CALM 29.97S VIDALIA DRIZZLE 54 54 100 SE5 29.95F EASTMAN RAIN 51 51 99 CALM 29.99R HAZLEHURST CLOUDY 59 59 100 CALM 29.95F ALMA LGT RAIN 64 64 100 S6 29.96F WAYCROSS RAIN 67 67 100 CALM 29.97S JESUP RAIN 64 64 100 CALM 29.98S BAXLEY RAIN 64 64 100 CALM 29.95F BRUNSWICK CLOUDY 70 68 94 S9 29.98R SAINT SIMONS CLOUDY 67 64 90 VRB7 29.97F $$ SCZ027-028-034-036>038-045-046-048>050-GAZ119-141-051100- ...LAKE AND SUPPLEMENTAL COASTAL OBSERVATIONS... STATION/POSITION TIME TEMP WIND PRES WAVE SWELL AIR SEA DIR/SP/G HT/PER HT/PER/DIR (UTC) (F) (DEG/KT/KT) (MB) (FT/S) (FT/S/D) WINYAH BAY 0845 67 230/ 9 1014.0 LAKE MURRAY 0920 44 360/ 3/ 7 1015.2S ACE BASIN NERRS 0845 67 210/ 2 1014.0 FORT PULASKI 0948 65 62 250/ 3/ 5 1015.1R SAPELO ISLAND 0900 67 190/ 8 1015.0 $$ ANZ835-935-AMZ111-154-330-350-352-354-370-450-454-472-051100- ...C-MAN AND BUOY OBSERVATIONS... STATION/POSITION TIME TEMP WIND PRES WAVE SWELL AIR SEA DIR/SP/G HT/PER HT/PER/DIR (UTC) (F) (DEG/KT/KT) (MB) (FT/S) (FT/S/D) BUOY 41004 0950 75 74 210/ 19/ 23 1013.6R 8/ 7 2/140/10 BUOY 41008 0950 67 65 180/ 14/ 16 1014.1F 4/ 6 2/ 90/ 8 FOLLY BEACH CMAN 0900 66 230/ 10/ 14 1015.0F CAPERS NEARSHORE NOT AVBL FRIPP NEARSHORE 0908 64 62 240/ 8/ 10 1014.6S STATION/POSITION TIME TEMP WIND PRES WAVE SWELL AIR SEA DIR/SP/G HT/PER HT/PER/DIR (UTC) (F) (DEG/KT/KT) (MB) (FT/S) (FT/S/D) 5E ST. MARYS GA 1000 65 N/A 3/ 6 FRYING PAN BUOY 0950 74 74 190/ 25/ 33 1013.3F 7/ 6 2/130/ 9 BUOY 41025 0950 69 75 210/ 27/ 31 1013.3F 5/ 8 2/ 60/ 8 CAPE LOOKOUT NC 0900 63 210/ 6/ 8 1013.7F BUOY 41002 0950 70 73 190/ 17/ 23 1017.8F 4/10 3/ 30/10 BUOY 41010 NOT AVBL ST AUGUSTINE FL 1000 69 68 210/ 5/ 6 1016.4S $$

USA.gov is the U.S. government's official web portal to all federal, state and local government web resources and services.